{"data":{"norad_id":63550,"intl_designator":"2025-075C","name":"STARLINK-11667 [DTC]","alt_names":[],"object_type":"PAYLOAD","status":"ACTIVE","operator":null,"country":"US","launch_date":"2025-04-13","launch_site_code":"AFETR","launch_vehicle":null,"mission":null,"orbit_class":"UNKNOWN","rcs_meters":null,"size_class":null,"mass_kg":null,"dimensions":null,"purposes":["comms"],"wikipedia_slug":null,"has_3d_model":false,"image_url":null,"decayed_at":null,"tle_current":{"epoch":"2026-05-25T00:55:24.024000Z","epoch_age_seconds":71483,"freshness":"FRESH","line1":"1 63550U 25075C   26145.03847250  .00156703  00000+0  11956-2 0  9990","line2":"2 63550  43.0004  53.8349 0001346 231.3227 128.7520 15.70964241 65250","mean_motion":15.70964241,"eccentricity":0.0001346,"inclination_deg":43.0004,"raan_deg":53.8349,"arg_perigee_deg":231.3227,"mean_anomaly_deg":128.752,"bstar":0.0011956,"rev_number":6525,"period_min":91.663448627154,"perigee_km":355.23354726011,"apogee_km":357.04641462338,"semimajor_km":6734.2769809417,"source":"CELESTRAK","updated_at":"2026-05-25T13:38:20.040433Z"}}}